PRALS SNIO-SNIB

Flight info

Callsign PRALS
Flight time N/A
Altitude 3500
Route DCT 1119S03857W 1135S03915W 1144S03924W 1155S03937W 1203S03946W 1211S03955W 1219S04004W DCT
Aircraft C172/L-SDFG/C

Departure

Time 2026-04-25 19:34
Airport Cipó Airport (SNIO)

Arrival

Time N/A
Airport Itaberaba Airport (SNIB)
Time Latitude Longitude Altitude Speed Heading
2026-04-25 19:14 -11.12420 -38.49300 744 ft 0 kts 131°
2026-04-25 19:29 -11.12405 -38.49300 745 ft 12 kts 320°
2026-04-25 19:29 -11.12355 -38.49311 746 ft 6 kts 359°
2026-04-25 19:29 -11.12351 -38.49308 746 ft 0 kts 59°
2026-04-25 19:32 -11.12322 -38.49300 746 ft 4 kts 343°
2026-04-25 19:32 -11.12294 -38.49313 744 ft 5 kts 99°
2026-04-25 19:32 -11.12295 -38.49309 744 ft 0 kts 109°
2026-04-25 19:33 -11.12295 -38.49308 744 ft 1 kts 108°
2026-04-25 19:33 -11.12357 -38.49142 743 ft 49 kts 110°
2026-04-25 19:33 -11.12521 -38.48711 795 ft 74 kts 116°
2026-04-25 19:34 -11.12716 -38.48208 945 ft 79 kts 115°
2026-04-25 19:34 -11.12923 -38.47681 1146 ft 81 kts 109°
2026-04-25 19:34 -11.13088 -38.47150 1388 ft 75 kts 112°
2026-04-25 19:34 -11.12996 -38.46652 1637 ft 84 kts 58°
2026-04-25 19:35 -11.12464 -38.46419 1957 ft 84 kts
2026-04-25 19:35 -11.11881 -38.46663 2061 ft 108 kts 314°
2026-04-25 19:35 -11.11444 -38.47330 2204 ft 115 kts 294°
2026-04-25 19:35 -11.11079 -38.48086 2357 ft 119 kts 285°
2026-04-25 19:36 -11.11139 -38.48806 2626 ft 99 kts 229°
2026-04-25 19:36 -11.11708 -38.49246 2625 ft 105 kts 195°
2026-04-25 19:36 -11.12362 -38.49494 2782 ft 105 kts 200°
2026-04-25 19:36 -11.12959 -38.49973 2897 ft 108 kts 214°
2026-04-25 19:37 -11.13395 -38.50627 2965 ft 118 kts 244°
2026-04-25 19:37 -11.13674 -38.51393 3110 ft 112 kts 242°
2026-04-25 19:37 -11.13956 -38.52115 3273 ft 109 kts 240°
2026-04-25 19:37 -11.14260 -38.52818 3419 ft 108 kts 238°
2026-04-25 19:38 -11.14568 -38.53504 3562 ft 108 kts 243°
2026-04-25 19:38 -11.14820 -38.54228 3705 ft 108 kts 244°
2026-04-25 19:38 -11.15067 -38.54954 3846 ft 108 kts 244°
2026-04-25 19:38 -11.15314 -38.55681 3989 ft 109 kts 244°
2026-04-25 19:39 -11.15542 -38.56407 4138 ft 107 kts 244°
2026-04-25 19:39 -11.15792 -38.57113 4284 ft 106 kts 244°
2026-04-25 19:39 -11.16039 -38.57818 4432 ft 106 kts 242°
2026-04-25 19:39 -11.16277 -38.58533 4502 ft 109 kts 244°
2026-04-25 19:40 -11.16539 -38.59273 4503 ft 113 kts 244°
2026-04-25 19:40 -11.16810 -38.60039 4507 ft 117 kts 244°
2026-04-25 19:40 -11.17099 -38.60828 4512 ft 120 kts 243°
2026-04-25 19:40 -11.17398 -38.61623 4516 ft 120 kts 243°
2026-04-25 19:41 -11.17688 -38.62423 4516 ft 120 kts 244°
2026-04-25 19:41 -11.17976 -38.63221 4512 ft 120 kts 244°
2026-04-25 19:41 -11.18269 -38.64013 4510 ft 119 kts 243°
2026-04-25 19:41 -11.18464 -38.64535 4509 ft 119 kts 244°
2026-04-25 19:42 -11.18847 -38.65576 4504 ft 116 kts 245°
2026-04-25 19:42 -11.19115 -38.66339 4505 ft 113 kts 244°
2026-04-25 19:42 -11.19380 -38.67098 4504 ft 114 kts 244°
2026-04-25 19:42 -11.19655 -38.67860 4507 ft 115 kts 244°
2026-04-25 19:43 -11.19928 -38.68626 4503 ft 114 kts 243°
2026-04-25 19:43 -11.20196 -38.69381 4509 ft 113 kts 244°
2026-04-25 19:43 -11.20472 -38.70128 4502 ft 113 kts 244°
2026-04-25 19:43 -11.20758 -38.70873 4502 ft 113 kts 242°
2026-04-25 19:44 -11.21032 -38.71631 4503 ft 114 kts 244°
2026-04-25 19:44 -11.21306 -38.72389 4502 ft 115 kts 244°
2026-04-25 19:44 -11.21583 -38.73152 4506 ft 114 kts 244°
2026-04-25 19:44 -11.21861 -38.73909 4501 ft 114 kts 245°
2026-04-25 19:45 -11.22139 -38.74668 4502 ft 115 kts 244°
2026-04-25 19:45 -11.22413 -38.75432 4502 ft 113 kts 244°
2026-04-25 19:45 -11.22679 -38.76175 4503 ft 111 kts 243°
2026-04-25 19:45 -11.22942 -38.76928 4502 ft 114 kts 244°
2026-04-25 19:46 -11.23250 -38.77659 4504 ft 109 kts 230°
2026-04-25 19:46 -11.23651 -38.78321 4505 ft 113 kts 240°
2026-04-25 19:46 -11.23932 -38.79072 4510 ft 113 kts 242°
2026-04-25 19:46 -11.24229 -38.79830 4405 ft 119 kts 241°
2026-04-25 19:47 -11.24528 -38.80608 4323 ft 120 kts 241°
2026-04-25 19:47 -11.24836 -38.81425 4181 ft 126 kts 242°
2026-04-25 19:47 -11.25177 -38.82260 4049 ft 128 kts 242°
2026-04-25 19:47 -11.25519 -38.83104 3906 ft 128 kts 241°
2026-04-25 19:48 -11.25843 -38.83938 3770 ft 128 kts 242°
2026-04-25 19:48 -11.26183 -38.84796 3630 ft 130 kts 243°
2026-04-25 19:48 -11.26530 -38.85639 3482 ft 128 kts 242°
2026-04-25 19:48 -11.26867 -38.86463 3343 ft 127 kts 243°
2026-04-25 19:49 -11.27216 -38.87305 3196 ft 127 kts 242°
2026-04-25 19:49 -11.27327 -38.87574 3149 ft 128 kts 242°
2026-04-25 19:49 -11.27887 -38.88962 2897 ft 127 kts 242°
2026-04-25 19:49 -11.28200 -38.89803 2757 ft 127 kts 242°
2026-04-25 19:50 -11.28828 -38.91442 2517 ft 120 kts 242°
2026-04-25 19:50 -11.29161 -38.92207 2521 ft 116 kts 232°
2026-04-25 19:50 -11.29570 -38.92909 2518 ft 114 kts 228°
2026-04-25 19:51 -11.30038 -38.93545 2507 ft 111 kts 228°
2026-04-25 19:51 -11.30479 -38.94189 2508 ft 111 kts 227°
2026-04-25 19:51 -11.30930 -38.94822 2513 ft 110 kts 226°
2026-04-25 19:51 -11.31397 -38.95442 2511 ft 111 kts 225°
2026-04-25 19:52 -11.31886 -38.96056 2520 ft 113 kts 225°
2026-04-25 19:52 -11.32400 -38.96649 2515 ft 111 kts 220°
2026-04-25 19:52 -11.32929 -38.97226 2515 ft 112 kts 221°
2026-04-25 19:52 -11.33477 -38.97797 2524 ft 114 kts 220°
2026-04-25 19:53 -11.34026 -38.98386 2528 ft 115 kts 221°
2026-04-25 19:53 -11.34571 -38.98990 2520 ft 115 kts 221°
2026-04-25 19:53 -11.35112 -38.99582 2524 ft 114 kts 220°
2026-04-25 19:53 -11.35656 -39.00171 2525 ft 115 kts 220°
2026-04-25 19:54 -11.36208 -39.00767 2529 ft 118 kts 221°
2026-04-25 19:54 -11.36778 -39.01384 2613 ft 118 kts 221°
2026-04-25 19:54 -11.37353 -39.01994 2635 ft 121 kts 220°
2026-04-25 19:54 -11.37553 -39.02204 2646 ft 122 kts 221°
2026-04-25 19:55 -11.38502 -39.03228 2798 ft 115 kts 220°
2026-04-25 19:55 -11.39024 -39.03815 2911 ft 109 kts 222°
2026-04-25 19:55 -11.39539 -39.04363 3033 ft 107 kts 220°
2026-04-25 19:55 -11.40052 -39.04917 3148 ft 107 kts 221°
2026-04-25 19:56 -11.40550 -39.05477 3260 ft 105 kts 221°
2026-04-25 19:56 -11.41036 -39.06019 3374 ft 103 kts 220°
2026-04-25 19:56 -11.41513 -39.06555 3486 ft 102 kts 220°
2026-04-25 19:56 -11.41976 -39.07089 3605 ft 100 kts 224°
2026-04-25 19:57 -11.42404 -39.07627 3723 ft 96 kts 222°
2026-04-25 19:57 -11.42822 -39.08154 3836 ft 95 kts 222°
2026-04-25 19:57 -11.43242 -39.08674 3958 ft 95 kts 221°
2026-04-25 19:57 -11.43657 -39.09197 4072 ft 95 kts 221°
2026-04-25 19:58 -11.44073 -39.09708 4196 ft 94 kts 222°
2026-04-25 19:58 -11.44487 -39.10221 4316 ft 94 kts 223°
2026-04-25 19:58 -11.44900 -39.10737 4444 ft 94 kts 223°
2026-04-25 19:58 -11.45329 -39.11251 4522 ft 100 kts 223°
2026-04-25 19:59 -11.45802 -39.11816 4525 ft 108 kts 222°
2026-04-25 19:59 -11.46301 -39.12419 4526 ft 114 kts 223°
2026-04-25 19:59 -11.46827 -39.13042 4525 ft 116 kts 223°
2026-04-25 19:59 -11.47334 -39.13661 4530 ft 113 kts 223°
2026-04-25 20:00 -11.47836 -39.14270 4525 ft 111 kts 223°
2026-04-25 20:00 -11.47999 -39.14465 4526 ft 111 kts 223°
2026-04-25 20:00 -11.48820 -39.15473 4521 ft 111 kts 223°
2026-04-25 20:00 -11.49326 -39.16077 4519 ft 110 kts 223°
2026-04-25 20:01 -11.50317 -39.17252 4522 ft 110 kts 222°
2026-04-25 20:01 -11.50831 -39.17837 4520 ft 111 kts 221°
2026-04-25 20:01 -11.51342 -39.18424 4525 ft 110 kts 221°
2026-04-25 20:02 -11.51844 -39.19010 4529 ft 109 kts 222°
2026-04-25 20:02 -11.52348 -39.19596 4519 ft 110 kts 221°
2026-04-25 20:02 -11.52860 -39.20184 4530 ft 112 kts 221°
2026-04-25 20:02 -11.53375 -39.20781 4530 ft 112 kts 222°
2026-04-25 20:03 -11.53890 -39.21371 4525 ft 110 kts 221°
2026-04-25 20:03 -11.54398 -39.21958 4518 ft 111 kts 222°
2026-04-25 20:03 -11.54913 -39.22546 4523 ft 111 kts 222°
2026-04-25 20:03 -11.55433 -39.23136 4515 ft 112 kts 221°
2026-04-25 20:04 -11.55953 -39.23725 4524 ft 111 kts 221°
2026-04-25 20:04 -11.56472 -39.24315 4530 ft 112 kts 222°
2026-04-25 20:04 -11.56993 -39.24911 4527 ft 113 kts 223°
2026-04-25 20:04 -11.57521 -39.25502 4526 ft 112 kts 221°
2026-04-25 20:05 -11.58043 -39.26091 4523 ft 112 kts 222°
2026-04-25 20:05 -11.58563 -39.26690 4526 ft 113 kts 222°
2026-04-25 20:05 -11.59082 -39.27286 4524 ft 112 kts 222°
2026-04-25 20:05 -11.59604 -39.27878 4534 ft 112 kts 221°
2026-04-25 20:06 -11.60114 -39.28466 4525 ft 112 kts 221°
2026-04-25 20:06 -11.60640 -39.29069 4531 ft 112 kts 223°
2026-04-25 20:06 -11.61156 -39.29654 4533 ft 114 kts 221°
2026-04-25 20:06 -11.61680 -39.30268 4530 ft 115 kts 222°
2026-04-25 20:07 -11.62222 -39.30874 4531 ft 116 kts 222°
2026-04-25 20:07 -11.62774 -39.31487 4533 ft 116 kts 221°
2026-04-25 20:07 -11.63299 -39.32101 4531 ft 117 kts 221°
2026-04-25 20:07 -11.63832 -39.32724 4524 ft 116 kts 223°
2026-04-25 20:08 -11.64372 -39.33334 4526 ft 116 kts 221°
2026-04-25 20:08 -11.64906 -39.33950 4530 ft 116 kts 221°
2026-04-25 20:08 -11.65438 -39.34569 4523 ft 116 kts 221°
2026-04-25 20:08 -11.65971 -39.35188 4526 ft 116 kts 222°
2026-04-25 20:09 -11.66505 -39.35811 4528 ft 117 kts 222°
2026-04-25 20:09 -11.67049 -39.36420 4525 ft 115 kts 218°
2026-04-25 20:09 -11.67608 -39.36995 4524 ft 115 kts 222°
2026-04-25 20:09 -11.68136 -39.37610 4527 ft 116 kts 222°
2026-04-25 20:10 -11.68673 -39.38226 4522 ft 117 kts 222°
2026-04-25 20:10 -11.69211 -39.38847 4525 ft 117 kts 222°
2026-04-25 20:10 -11.69754 -39.39463 4524 ft 117 kts 222°
2026-04-25 20:10 -11.70299 -39.40080 4524 ft 117 kts 222°
2026-04-25 20:11 -11.70843 -39.40700 4520 ft 117 kts 222°
2026-04-25 20:11 -11.71390 -39.41312 4524 ft 117 kts 222°
2026-04-25 20:11 -11.71760 -39.41725 4527 ft 116 kts 221°
2026-04-25 20:11 -11.72471 -39.42548 4526 ft 117 kts 222°
2026-04-25 20:12 -11.72837 -39.42971 4522 ft 117 kts 223°
2026-04-25 20:12 -11.73383 -39.43581 4523 ft 116 kts 222°
2026-04-25 20:12 -11.73926 -39.44189 4521 ft 116 kts 221°
2026-04-25 20:12 -11.74279 -39.44598 4525 ft 116 kts 222°
2026-04-25 20:13 -11.74992 -39.45422 4524 ft 117 kts 222°
2026-04-25 20:13 -11.75536 -39.46040 4526 ft 116 kts 221°
2026-04-25 20:13 -11.76082 -39.46661 4523 ft 116 kts 222°
2026-04-25 20:13 -11.76616 -39.47260 4528 ft 116 kts 221°
2026-04-25 20:14 -11.77162 -39.47879 4525 ft 116 kts 222°
2026-04-25 20:14 -11.77695 -39.48483 4517 ft 116 kts 222°
2026-04-25 20:14 -11.78235 -39.49096 4525 ft 116 kts 222°
2026-04-25 20:14 -11.78783 -39.49710 4528 ft 116 kts 221°
2026-04-25 20:15 -11.79327 -39.50320 4524 ft 116 kts 222°
2026-04-25 20:15 -11.79862 -39.50917 4520 ft 115 kts 222°
2026-04-25 20:15 -11.80403 -39.51523 4521 ft 114 kts 221°
2026-04-25 20:15 -11.80937 -39.52131 4523 ft 115 kts 222°
2026-04-25 20:16 -11.81467 -39.52728 4524 ft 114 kts 221°
2026-04-25 20:16 -11.82003 -39.53330 4522 ft 115 kts 221°
2026-04-25 20:16 -11.82537 -39.53939 4523 ft 115 kts 221°
2026-04-25 20:16 -11.83067 -39.54550 4521 ft 115 kts 222°
2026-04-25 20:17 -11.83603 -39.55157 4523 ft 116 kts 221°
2026-04-25 20:17 -11.84139 -39.55771 4518 ft 116 kts 221°
2026-04-25 20:17 -11.84678 -39.56392 4517 ft 118 kts 222°
2026-04-25 20:17 -11.85226 -39.57012 4522 ft 117 kts 222°
2026-04-25 20:18 -11.85781 -39.57625 4527 ft 118 kts 221°
2026-04-25 20:18 -11.86338 -39.58247 4525 ft 119 kts 221°
2026-04-25 20:18 -11.86895 -39.58868 4523 ft 119 kts 221°
2026-04-25 20:18 -11.87459 -39.59487 4532 ft 119 kts 221°
2026-04-25 20:19 -11.88015 -39.60111 4522 ft 118 kts 222°
2026-04-25 20:19 -11.88567 -39.60723 4523 ft 117 kts 221°
2026-04-25 20:19 -11.89122 -39.61343 4529 ft 118 kts 222°
2026-04-25 20:19 -11.89672 -39.61963 4522 ft 117 kts 222°
2026-04-25 20:20 -11.90225 -39.62578 4531 ft 118 kts 221°
2026-04-25 20:20 -11.90778 -39.63192 4529 ft 118 kts 221°
2026-04-25 20:20 -11.91334 -39.63804 4527 ft 118 kts 221°
2026-04-25 20:20 -11.91897 -39.64423 4532 ft 119 kts 221°
2026-04-25 20:21 -11.92458 -39.65046 4529 ft 118 kts 221°
2026-04-25 20:21 -11.93013 -39.65662 4530 ft 117 kts 221°
2026-04-25 20:21 -11.93559 -39.66278 4526 ft 116 kts 222°
2026-04-25 20:21 -11.94097 -39.66877 4522 ft 114 kts 221°
2026-04-25 20:22 -11.94630 -39.67472 4520 ft 116 kts 221°
2026-04-25 20:22 -11.94993 -39.67885 4522 ft 116 kts 222°
2026-04-25 20:22 -11.95704 -39.68693 4520 ft 116 kts 222°
2026-04-25 20:22 -11.96245 -39.69310 4522 ft 117 kts 222°
2026-04-25 20:23 -11.96783 -39.69927 4522 ft 116 kts 222°
2026-04-25 20:23 -11.97327 -39.70542 4518 ft 117 kts 221°
2026-04-25 20:23 -11.97872 -39.71157 4519 ft 116 kts 221°
2026-04-25 20:23 -11.98411 -39.71774 4522 ft 116 kts 221°
2026-04-25 20:24 -11.98954 -39.72393 4524 ft 118 kts 221°
2026-04-25 20:24 -11.99503 -39.73017 4518 ft 118 kts 221°
2026-04-25 20:24 -12.00052 -39.73630 4522 ft 116 kts 222°
2026-04-25 20:24 -12.00594 -39.74238 4522 ft 116 kts 222°
2026-04-25 20:25 -12.01136 -39.74850 4518 ft 116 kts 222°
2026-04-25 20:25 -12.01678 -39.75454 4518 ft 115 kts 222°
2026-04-25 20:25 -12.02218 -39.76062 4521 ft 116 kts 222°
2026-04-25 20:25 -12.02767 -39.76671 4520 ft 117 kts 221°
2026-04-25 20:26 -12.03320 -39.77279 4513 ft 117 kts 221°
2026-04-25 20:26 -12.03873 -39.77890 4521 ft 117 kts 221°
2026-04-25 20:26 -12.04428 -39.78501 4524 ft 117 kts 221°
2026-04-25 20:26 -12.04978 -39.79110 4526 ft 116 kts 222°
2026-04-25 20:27 -12.05531 -39.79712 4523 ft 116 kts 222°
2026-04-25 20:27 -12.06084 -39.80311 4517 ft 115 kts 222°
2026-04-25 20:27 -12.06632 -39.80909 4522 ft 115 kts 222°
2026-04-25 20:27 -12.07181 -39.81508 4511 ft 115 kts 221°
2026-04-25 20:28 -12.07722 -39.82107 4510 ft 114 kts 222°
2026-04-25 20:28 -12.08266 -39.82701 4512 ft 115 kts 222°
2026-04-25 20:28 -12.08814 -39.83294 4517 ft 115 kts 222°
2026-04-25 20:28 -12.09359 -39.83896 4514 ft 116 kts 222°
2026-04-25 20:29 -12.09897 -39.84492 4520 ft 115 kts 222°
2026-04-25 20:29 -12.10456 -39.85095 4522 ft 116 kts 221°
2026-04-25 20:29 -12.11008 -39.85699 4522 ft 116 kts 222°
2026-04-25 20:29 -12.11562 -39.86301 4523 ft 117 kts 222°
2026-04-25 20:30 -12.12107 -39.86895 4521 ft 115 kts 222°
2026-04-25 20:30 -12.12639 -39.87495 4512 ft 113 kts 222°
2026-04-25 20:30 -12.13172 -39.88087 4508 ft 114 kts 221°
2026-04-25 20:30 -12.13705 -39.88679 4511 ft 112 kts 222°
2026-04-25 20:31 -12.14237 -39.89266 4514 ft 114 kts 223°
2026-04-25 20:31 -12.14784 -39.89858 4515 ft 115 kts 221°
2026-04-25 20:31 -12.15329 -39.90458 4510 ft 115 kts 222°
2026-04-25 20:31 -12.15877 -39.91059 4514 ft 116 kts 221°
2026-04-25 20:32 -12.16429 -39.91661 4518 ft 117 kts 221°
2026-04-25 20:32 -12.16982 -39.92272 4526 ft 118 kts 222°
2026-04-25 20:32 -12.17543 -39.92884 4515 ft 118 kts 221°
2026-04-25 20:32 -12.18097 -39.93497 4520 ft 117 kts 221°
2026-04-25 20:33 -12.18649 -39.94109 4516 ft 117 kts 222°
2026-04-25 20:33 -12.19202 -39.94718 4518 ft 117 kts 221°
2026-04-25 20:33 -12.19754 -39.95331 4510 ft 117 kts 222°
2026-04-25 20:33 -12.20120 -39.95735 4518 ft 117 kts 221°